UAL1083 CYVR-KSFO

Flight info

Callsign UAL1083
Flight time 1h 45m
Altitude 37000
Route VIXOR DCT ELMAA Q1 ETCHY DCT MLBEC BDEGA4
Aircraft B38M/M-SDE1FGHILORVWXY/HB1

Departure

Time 2026-05-05 02:23
Airport Vancouver International Airport (CYVR)

Arrival

Time 2026-05-05 04:08
Airport San Francisco International Airport (KSFO)
Time Latitude Longitude Altitude Speed Heading
2026-05-05 01:29 49.19843 -123.17392 27 ft 0 kts 187°
2026-05-05 02:05 49.19848 -123.17391 27 ft 4 kts 187°
2026-05-05 02:05 49.19875 -123.17386 27 ft 4 kts 187°
2026-05-05 02:05 49.19896 -123.17382 27 ft 4 kts 178°
2026-05-05 02:06 49.19916 -123.17394 27 ft 4 kts 124°
2026-05-05 02:06 49.19921 -123.17417 27 ft 4 kts 85°
2026-05-05 02:06 49.19919 -123.17447 27 ft 4 kts 84°
2026-05-05 02:06 49.19918 -123.17458 27 ft 1 kts 84°
2026-05-05 02:11 49.19919 -123.17454 27 ft 1 kts 84°
2026-05-05 02:12 49.19921 -123.17433 31 ft 3 kts 76°
2026-05-05 02:12 49.19968 -123.17391 27 ft 6 kts 10°
2026-05-05 02:12 49.19998 -123.17422 27 ft 6 kts 292°
2026-05-05 02:13 49.20010 -123.17514 27 ft 14 kts 279°
2026-05-05 02:13 49.20029 -123.17686 27 ft 18 kts 280°
2026-05-05 02:13 49.20052 -123.17883 27 ft 19 kts 279°
2026-05-05 02:13 49.20076 -123.18087 27 ft 20 kts 280°
2026-05-05 02:14 49.20100 -123.18306 27 ft 21 kts 280°
2026-05-05 02:14 49.20126 -123.18532 27 ft 22 kts 279°
2026-05-05 02:14 49.20152 -123.18759 27 ft 23 kts 280°
2026-05-05 02:14 49.20174 -123.18971 27 ft 15 kts 267°
2026-05-05 02:15 49.20092 -123.19045 27 ft 17 kts 189°
2026-05-05 02:15 49.19944 -123.19083 27 ft 27 kts 190°
2026-05-05 02:15 49.19747 -123.19136 27 ft 30 kts 190°
2026-05-05 02:15 49.19574 -123.19168 27 ft 19 kts 169°
2026-05-05 02:16 49.19466 -123.19058 27 ft 20 kts 141°
2026-05-05 02:16 49.19351 -123.18921 27 ft 22 kts 142°
2026-05-05 02:16 49.19225 -123.18770 27 ft 24 kts 141°
2026-05-05 02:16 49.19091 -123.18609 27 ft 25 kts 142°
2026-05-05 02:17 49.18956 -123.18429 27 ft 26 kts 116°
2026-05-05 02:17 49.18921 -123.18148 27 ft 28 kts 100°
2026-05-05 02:17 49.18887 -123.17851 27 ft 29 kts 99°
2026-05-05 02:17 49.18851 -123.17541 27 ft 30 kts 100°
2026-05-05 02:18 49.18815 -123.17221 27 ft 32 kts 99°
2026-05-05 02:18 49.18776 -123.16882 27 ft 33 kts 100°
2026-05-05 02:18 49.18737 -123.16535 27 ft 31 kts 99°
2026-05-05 02:18 49.18687 -123.16278 27 ft 24 kts 131°
2026-05-05 02:19 49.18631 -123.16122 27 ft 10 kts 99°
2026-05-05 02:19 49.18587 -123.16040 27 ft 7 kts 169°
2026-05-05 02:19 49.18585 -123.16039 27 ft 0 kts 172°
2026-05-05 02:21 49.18584 -123.16039 27 ft 1 kts 172°
2026-05-05 02:21 49.18561 -123.16042 27 ft 8 kts 191°
2026-05-05 02:21 49.18484 -123.16109 27 ft 19 kts 251°
2026-05-05 02:22 49.18519 -123.16487 27 ft 65 kts 279°
2026-05-05 02:22 49.18633 -123.17485 27 ft 123 kts 280°
2026-05-05 02:22 49.18806 -123.19019 45 ft 165 kts 279°
2026-05-05 02:22 49.19005 -123.20767 484 ft 173 kts 278°
2026-05-05 02:23 49.19216 -123.22659 894 ft 185 kts 278°
2026-05-05 02:23 49.19439 -123.24601 1542 ft 183 kts 278°
2026-05-05 02:23 49.19659 -123.26603 2154 ft 200 kts 279°
2026-05-05 02:23 49.19880 -123.28825 2649 ft 224 kts 278°
2026-05-05 02:24 49.20115 -123.31281 3387 ft 233 kts 278°
2026-05-05 02:24 49.20024 -123.33816 4142 ft 253 kts 250°
2026-05-05 02:24 49.18920 -123.35978 4922 ft 268 kts 217°
2026-05-05 02:24 49.17184 -123.37119 5826 ft 278 kts 192°
2026-05-05 02:25 49.15257 -123.37555 6754 ft 283 kts 189°
2026-05-05 02:25 49.13300 -123.38027 7639 ft 287 kts 189°
2026-05-05 02:25 49.11309 -123.38524 8523 ft 292 kts 189°
2026-05-05 02:25 49.09285 -123.39038 9396 ft 297 kts 189°
2026-05-05 02:26 49.07232 -123.39568 10199 ft 303 kts 189°
2026-05-05 02:26 49.05092 -123.40128 10678 ft 321 kts 189°
2026-05-05 02:26 49.02826 -123.40735 11029 ft 341 kts 190°
2026-05-05 02:26 49.00437 -123.41373 11511 ft 355 kts 190°
2026-05-05 02:27 48.98000 -123.42014 12140 ft 363 kts 189°
2026-05-05 02:27 48.95495 -123.42658 12886 ft 368 kts 190°
2026-05-05 02:27 48.92951 -123.43312 13574 ft 373 kts 190°
2026-05-05 02:27 48.90373 -123.43969 14218 ft 378 kts 190°
2026-05-05 02:28 48.87763 -123.44634 14839 ft 382 kts 190°
2026-05-05 02:28 48.85129 -123.45303 15471 ft 387 kts 190°
2026-05-05 02:28 48.82454 -123.45982 16084 ft 391 kts 190°
2026-05-05 02:28 48.79758 -123.46666 16687 ft 396 kts 190°
2026-05-05 02:29 48.77024 -123.47358 17282 ft 400 kts 190°
2026-05-05 02:29 48.74261 -123.48056 17881 ft 404 kts 190°
2026-05-05 02:29 48.71444 -123.48392 18379 ft 409 kts 177°
2026-05-05 02:29 48.68585 -123.48237 18854 ft 413 kts 178°
2026-05-05 02:30 48.65706 -123.48103 19395 ft 415 kts 178°
2026-05-05 02:30 48.62804 -123.47964 19896 ft 419 kts 178°
2026-05-05 02:30 48.59883 -123.47822 20381 ft 423 kts 178°
2026-05-05 02:30 48.56926 -123.47679 20853 ft 426 kts 178°
2026-05-05 02:31 48.53949 -123.47534 21343 ft 429 kts 178°
2026-05-05 02:31 48.50956 -123.47389 21842 ft 432 kts 178°
2026-05-05 02:31 48.47942 -123.47243 22312 ft 436 kts 178°
2026-05-05 02:31 48.44908 -123.47095 22775 ft 439 kts 178°
2026-05-05 02:32 48.41839 -123.46948 23232 ft 442 kts 178°
2026-05-05 02:32 48.38749 -123.46798 23641 ft 445 kts 178°
2026-05-05 02:32 48.35644 -123.46649 24026 ft 448 kts 178°
2026-05-05 02:32 48.32519 -123.46498 24416 ft 450 kts 178°
2026-05-05 02:33 48.29377 -123.46347 24797 ft 453 kts 178°
2026-05-05 02:33 48.26218 -123.46195 25213 ft 455 kts 178°
2026-05-05 02:33 48.23053 -123.46043 25595 ft 458 kts 178°
2026-05-05 02:33 48.19855 -123.45889 25961 ft 460 kts 178°
2026-05-05 02:34 48.16640 -123.45735 26318 ft 463 kts 178°
2026-05-05 02:34 48.13417 -123.45581 26713 ft 464 kts 178°
2026-05-05 02:34 48.10182 -123.45427 27080 ft 466 kts 178°
2026-05-05 02:34 48.06971 -123.45273 27426 ft 469 kts 178°
2026-05-05 02:35 48.03704 -123.45118 27791 ft 471 kts 178°
2026-05-05 02:35 48.00424 -123.44962 28141 ft 474 kts 178°
2026-05-05 02:35 47.97118 -123.44804 28486 ft 476 kts 178°
2026-05-05 02:35 47.93805 -123.44647 28805 ft 479 kts 178°
2026-05-05 02:36 47.90472 -123.44489 29136 ft 481 kts 178°
2026-05-05 02:36 47.87111 -123.44329 29416 ft 484 kts 178°
2026-05-05 02:36 47.83733 -123.44170 29756 ft 486 kts 178°
2026-05-05 02:36 47.80354 -123.44010 30047 ft 488 kts 178°
2026-05-05 02:37 47.76946 -123.43849 30290 ft 490 kts 178°
2026-05-05 02:37 47.73540 -123.43689 30625 ft 490 kts 178°
2026-05-05 02:37 47.70126 -123.43528 30908 ft 492 kts 178°
2026-05-05 02:37 47.66691 -123.43367 31150 ft 495 kts 177°
2026-05-05 02:38 47.63240 -123.43205 31368 ft 497 kts 177°
2026-05-05 02:38 47.59781 -123.43043 31609 ft 499 kts 177°
2026-05-05 02:38 47.56305 -123.42879 31835 ft 501 kts 177°
2026-05-05 02:38 47.52819 -123.42718 32153 ft 503 kts 177°
2026-05-05 02:39 47.49313 -123.42554 32455 ft 503 kts 177°
2026-05-05 02:39 47.45818 -123.42391 32770 ft 503 kts 177°
2026-05-05 02:39 47.42316 -123.42228 33076 ft 503 kts 176°
2026-05-05 02:39 47.38826 -123.42065 33369 ft 503 kts 176°
2026-05-05 02:40 47.35326 -123.41903 33731 ft 501 kts 176°
2026-05-05 02:40 47.31846 -123.41742 34091 ft 500 kts 176°
2026-05-05 02:40 47.28371 -123.41581 34308 ft 500 kts 176°
2026-05-05 02:40 47.24899 -123.41420 34557 ft 500 kts 176°
2026-05-05 02:41 47.21423 -123.41260 34809 ft 499 kts 176°
2026-05-05 02:41 47.17950 -123.41100 35062 ft 499 kts 176°
2026-05-05 02:41 47.14485 -123.40956 35284 ft 500 kts 176°
2026-05-05 02:41 47.11000 -123.40844 35507 ft 500 kts 176°
2026-05-05 02:42 47.07530 -123.40728 35770 ft 499 kts 176°
2026-05-05 02:42 47.04057 -123.40610 35998 ft 499 kts 176°
2026-05-05 02:42 47.00624 -123.40493 36214 ft 499 kts 176°
2026-05-05 02:42 46.97157 -123.40374 36435 ft 498 kts 176°
2026-05-05 02:43 46.93707 -123.40257 36738 ft 495 kts 176°
2026-05-05 02:43 46.90262 -123.40146 36934 ft 495 kts 176°
2026-05-05 02:43 46.86812 -123.40038 36988 ft 496 kts 176°
2026-05-05 02:44 46.79918 -123.39821 36968 ft 494 kts 176°
2026-05-05 02:44 46.73033 -123.39606 36960 ft 495 kts 176°
2026-05-05 02:45 46.66149 -123.39389 36972 ft 496 kts 176°
2026-05-05 02:45 46.59252 -123.39174 36974 ft 495 kts 176°
2026-05-05 02:46 46.52378 -123.38960 36976 ft 494 kts 176°
2026-05-05 02:46 46.45496 -123.38746 37013 ft 494 kts 175°
2026-05-05 02:47 46.38612 -123.38533 36986 ft 495 kts 175°
2026-05-05 02:47 46.31715 -123.38320 36983 ft 496 kts 176°
2026-05-05 02:48 46.24819 -123.38107 36981 ft 496 kts 175°
2026-05-05 02:48 46.17916 -123.37895 36975 ft 497 kts 175°
2026-05-05 02:49 46.11047 -123.37684 36985 ft 497 kts 175°
2026-05-05 02:49 46.04127 -123.37472 36977 ft 497 kts 175°
2026-05-05 02:50 45.97218 -123.37261 36963 ft 497 kts 175°
2026-05-05 02:50 45.90299 -123.37051 36952 ft 497 kts 175°
2026-05-05 02:51 45.83390 -123.36841 36937 ft 496 kts 175°
2026-05-05 02:51 45.76501 -123.36632 36940 ft 495 kts 175°
2026-05-05 02:52 45.69601 -123.36424 36936 ft 497 kts 175°
2026-05-05 02:52 45.62675 -123.36216 36918 ft 497 kts 175°
2026-05-05 02:53 45.55759 -123.36007 36932 ft 498 kts 175°
2026-05-05 02:53 45.48843 -123.35799 36928 ft 497 kts 175°
2026-05-05 02:54 45.43104 -123.35628 36934 ft 495 kts 175°
2026-05-05 02:54 45.36208 -123.35422 36930 ft 495 kts 175°
2026-05-05 02:55 45.29314 -123.35216 36936 ft 496 kts 175°
2026-05-05 02:55 45.22412 -123.35011 36919 ft 497 kts 174°
2026-05-05 02:56 45.15498 -123.34807 36917 ft 497 kts 174°
2026-05-05 02:56 45.08600 -123.34602 36922 ft 495 kts 174°
2026-05-05 02:57 45.01717 -123.34399 36936 ft 495 kts 174°
2026-05-05 02:57 44.94837 -123.34197 36939 ft 495 kts 174°
2026-05-05 02:58 44.87947 -123.33994 36939 ft 495 kts 174°
2026-05-05 02:58 44.81059 -123.33792 36958 ft 495 kts 174°
2026-05-05 02:59 44.74180 -123.33591 36957 ft 494 kts 174°
2026-05-05 02:59 44.67318 -123.33392 36963 ft 493 kts 174°
2026-05-05 03:00 44.60455 -123.33191 36975 ft 493 kts 174°
2026-05-05 03:00 44.53587 -123.32993 36969 ft 494 kts 174°
2026-05-05 03:01 44.46725 -123.32741 36963 ft 493 kts 173°
2026-05-05 03:01 44.39914 -123.32470 36979 ft 491 kts 173°
2026-05-05 03:02 44.33077 -123.32200 36979 ft 492 kts 173°
2026-05-05 03:02 44.26238 -123.31931 36988 ft 492 kts 173°
2026-05-05 03:03 44.19399 -123.31662 36988 ft 492 kts 173°
2026-05-05 03:03 44.12558 -123.31389 36990 ft 491 kts 173°
2026-05-05 03:04 44.05741 -123.31118 36993 ft 490 kts 173°
2026-05-05 03:04 43.98927 -123.30848 36989 ft 490 kts 173°
2026-05-05 03:05 43.92115 -123.30578 36997 ft 490 kts 173°
2026-05-05 03:05 43.85312 -123.30310 36984 ft 490 kts 173°
2026-05-05 03:06 43.78498 -123.30041 36988 ft 490 kts 173°
2026-05-05 03:06 43.71696 -123.29773 36990 ft 489 kts 172°
2026-05-05 03:07 43.64897 -123.29508 36976 ft 488 kts 172°
2026-05-05 03:07 43.58109 -123.29242 36984 ft 488 kts 172°
2026-05-05 03:08 43.51325 -123.28977 36997 ft 488 kts 172°
2026-05-05 03:08 43.44541 -123.28713 36982 ft 487 kts 172°
2026-05-05 03:09 43.37770 -123.28450 36983 ft 486 kts 172°
2026-05-05 03:09 43.31008 -123.28188 36997 ft 486 kts 172°
2026-05-05 03:10 43.24280 -123.27927 36990 ft 486 kts 172°
2026-05-05 03:10 43.17529 -123.27666 36988 ft 485 kts 172°
2026-05-05 03:11 43.10772 -123.27406 36977 ft 485 kts 172°
2026-05-05 03:11 43.04021 -123.27147 36962 ft 484 kts 172°
2026-05-05 03:12 42.97292 -123.26889 36959 ft 484 kts 172°
2026-05-05 03:12 42.90561 -123.26631 36927 ft 484 kts 172°
2026-05-05 03:13 42.83828 -123.26374 36920 ft 484 kts 172°
2026-05-05 03:13 42.77107 -123.26119 36917 ft 483 kts 172°
2026-05-05 03:14 42.70395 -123.25863 36917 ft 483 kts 172°
2026-05-05 03:14 42.63721 -123.25610 36921 ft 483 kts 172°
2026-05-05 03:15 42.56995 -123.25356 36890 ft 482 kts 172°
2026-05-05 03:15 42.50280 -123.25102 36887 ft 483 kts 172°
2026-05-05 03:16 42.43579 -123.24853 36877 ft 482 kts 171°
2026-05-05 03:16 42.36879 -123.24605 36905 ft 481 kts 171°
2026-05-05 03:17 42.30203 -123.24359 36882 ft 479 kts 171°
2026-05-05 03:17 42.23518 -123.24113 36892 ft 480 kts 171°
2026-05-05 03:18 42.16843 -123.23868 36882 ft 480 kts 171°
2026-05-05 03:18 42.10174 -123.23623 36891 ft 480 kts 171°
2026-05-05 03:19 42.00190 -123.23258 36884 ft 477 kts 171°
2026-05-05 03:19 41.93540 -123.23016 36896 ft 478 kts 171°
2026-05-05 03:20 41.86903 -123.22774 36925 ft 477 kts 171°
2026-05-05 03:20 41.80269 -123.22533 36931 ft 477 kts 172°
2026-05-05 03:21 41.73676 -123.22293 36951 ft 477 kts 171°
2026-05-05 03:21 41.67048 -123.22054 36971 ft 477 kts 171°
2026-05-05 03:22 41.60411 -123.21819 36974 ft 476 kts 171°
2026-05-05 03:22 41.53779 -123.21588 36924 ft 476 kts 171°
2026-05-05 03:23 41.47155 -123.21358 36978 ft 477 kts 172°
2026-05-05 03:23 41.40506 -123.21128 36985 ft 479 kts 171°
2026-05-05 03:24 41.33843 -123.20905 36989 ft 479 kts 172°
2026-05-05 03:24 41.27172 -123.20741 37037 ft 480 kts 172°
2026-05-05 03:25 41.20496 -123.20572 37017 ft 480 kts 172°
2026-05-05 03:25 41.13810 -123.20401 37026 ft 481 kts 172°
2026-05-05 03:26 41.07121 -123.20232 37017 ft 480 kts 172°
2026-05-05 03:26 41.00447 -123.20062 37046 ft 481 kts 172°
2026-05-05 03:27 40.93748 -123.19893 36986 ft 480 kts 172°
2026-05-05 03:27 40.87061 -123.19724 37030 ft 482 kts 172°
2026-05-05 03:28 40.80370 -123.19555 36973 ft 480 kts 172°
2026-05-05 03:28 40.73693 -123.19387 36988 ft 481 kts 172°
2026-05-05 03:29 40.67019 -123.19220 36996 ft 479 kts 172°
2026-05-05 03:29 40.60382 -123.19054 36977 ft 481 kts 172°
2026-05-05 03:30 40.53690 -123.18887 36990 ft 481 kts 172°
2026-05-05 03:30 40.46997 -123.18720 37009 ft 482 kts 172°
2026-05-05 03:31 40.40302 -123.18553 36994 ft 481 kts 172°
2026-05-05 03:31 40.33605 -123.18386 36998 ft 482 kts 172°
2026-05-05 03:32 40.26909 -123.18221 37023 ft 481 kts 172°
2026-05-05 03:32 40.20224 -123.18056 36981 ft 479 kts 173°
2026-05-05 03:33 40.13554 -123.17891 37003 ft 481 kts 173°
2026-05-05 03:33 40.06866 -123.17726 36998 ft 479 kts 173°
2026-05-05 03:34 40.00206 -123.17562 36997 ft 479 kts 173°
2026-05-05 03:34 39.93547 -123.17317 37005 ft 478 kts 172°
2026-05-05 03:35 39.86913 -123.17004 37014 ft 475 kts 173°
2026-05-05 03:35 39.80322 -123.16702 37020 ft 474 kts 173°
2026-05-05 03:36 39.73738 -123.16401 37011 ft 474 kts 173°
2026-05-05 03:36 39.67140 -123.16099 37019 ft 474 kts 173°
2026-05-05 03:37 39.61658 -123.15849 37018 ft 474 kts 173°
2026-05-05 03:37 39.55120 -123.15552 37030 ft 475 kts 173°
2026-05-05 03:38 39.48866 -123.15268 37007 ft 473 kts 173°
2026-05-05 03:38 39.42286 -123.14970 37022 ft 473 kts 173°
2026-05-05 03:39 39.35717 -123.14673 37041 ft 473 kts 173°
2026-05-05 03:39 39.29169 -123.14377 37036 ft 474 kts 173°
2026-05-05 03:40 39.22577 -123.14079 37033 ft 474 kts 173°
2026-05-05 03:40 39.15978 -123.13783 37046 ft 475 kts 173°
2026-05-05 03:41 39.09474 -123.12881 37016 ft 462 kts 155°
2026-05-05 03:41 39.06621 -123.11131 37036 ft 452 kts 143°
2026-05-05 03:41 39.04830 -123.09761 37026 ft 453 kts 144°
2026-05-05 03:42 39.02111 -123.07668 36859 ft 456 kts 143°
2026-05-05 03:42 38.99426 -123.05547 36217 ft 454 kts 142°
2026-05-05 03:42 38.96742 -123.03396 35485 ft 455 kts 141°
2026-05-05 03:42 38.94067 -123.01235 34876 ft 453 kts 141°
2026-05-05 03:43 38.91402 -122.99075 34236 ft 453 kts 140°
2026-05-05 03:43 38.88723 -122.96957 33530 ft 455 kts 145°
2026-05-05 03:43 38.85795 -122.95529 32825 ft 468 kts 159°
2026-05-05 03:43 38.82609 -122.94540 32186 ft 466 kts 159°
2026-05-05 03:44 38.79462 -122.93555 31606 ft 464 kts 160°
2026-05-05 03:44 38.76332 -122.92605 31106 ft 459 kts 160°
2026-05-05 03:44 38.73233 -122.91680 30574 ft 456 kts 160°
2026-05-05 03:44 38.70150 -122.90767 30117 ft 452 kts 160°
2026-05-05 03:45 38.67098 -122.89865 29580 ft 449 kts 160°
2026-05-05 03:45 38.64073 -122.88971 28977 ft 446 kts 160°
2026-05-05 03:45 38.61054 -122.88080 28448 ft 443 kts 160°
2026-05-05 03:45 38.58107 -122.87210 27978 ft 438 kts 160°
2026-05-05 03:46 38.55140 -122.86336 27450 ft 436 kts 160°
2026-05-05 03:46 38.52196 -122.85469 26977 ft 432 kts 160°
2026-05-05 03:46 38.49285 -122.84613 26512 ft 429 kts 160°
2026-05-05 03:46 38.48305 -122.84324 26359 ft 428 kts 160°
2026-05-05 03:47 38.46480 -122.83788 26072 ft 426 kts 160°
2026-05-05 03:47 38.43605 -122.82937 25660 ft 422 kts 160°
2026-05-05 03:47 38.40786 -122.82109 25540 ft 410 kts 161°
2026-05-05 03:48 38.38047 -122.81309 25401 ft 400 kts 160°
2026-05-05 03:48 38.35352 -122.80520 25139 ft 397 kts 160°
2026-05-05 03:48 38.32607 -122.79715 24869 ft 410 kts 161°
2026-05-05 03:48 38.29828 -122.78902 24582 ft 415 kts 160°
2026-05-05 03:49 38.27000 -122.78077 24039 ft 417 kts 161°
2026-05-05 03:49 38.24195 -122.77258 23327 ft 422 kts 161°
2026-05-05 03:49 38.21331 -122.76423 22497 ft 427 kts 161°
2026-05-05 03:49 38.18434 -122.75580 21816 ft 429 kts 161°
2026-05-05 03:50 38.15529 -122.74735 21241 ft 427 kts 161°
2026-05-05 03:50 38.12631 -122.73893 20587 ft 429 kts 161°
2026-05-05 03:50 38.09726 -122.73049 19900 ft 430 kts 161°
2026-05-05 03:50 38.06805 -122.72202 19207 ft 431 kts 162°
2026-05-05 03:51 38.03910 -122.71364 18561 ft 422 kts 162°
2026-05-05 03:51 38.01081 -122.70544 17851 ft 412 kts 162°
2026-05-05 03:51 37.98343 -122.69751 17267 ft 399 kts 162°
2026-05-05 03:51 37.95666 -122.68977 16674 ft 389 kts 162°
2026-05-05 03:52 37.93100 -122.68235 16582 ft 371 kts 162°
2026-05-05 03:52 37.90624 -122.67360 16573 ft 363 kts 150°
2026-05-05 03:52 37.88558 -122.65668 16571 ft 348 kts 135°
2026-05-05 03:52 37.86692 -122.63765 15917 ft 345 kts 135°
2026-05-05 03:53 37.84822 -122.61834 15107 ft 347 kts 135°
2026-05-05 03:53 37.82968 -122.59900 14360 ft 346 kts 136°
2026-05-05 03:53 37.81105 -122.57942 13439 ft 351 kts 136°
2026-05-05 03:53 37.79243 -122.55950 12607 ft 349 kts 132°
2026-05-05 03:54 37.77920 -122.53481 11905 ft 335 kts 108°
2026-05-05 03:54 37.77252 -122.50730 11487 ft 321 kts 103°
2026-05-05 03:54 37.76663 -122.48057 11131 ft 309 kts 103°
2026-05-05 03:54 37.76105 -122.45531 11078 ft 291 kts 103°
2026-05-05 03:55 37.75559 -122.43072 11041 ft 290 kts 103°
2026-05-05 03:55 37.75015 -122.40615 11011 ft 289 kts 103°
2026-05-05 03:55 37.74476 -122.38165 11005 ft 289 kts 103°
2026-05-05 03:55 37.73937 -122.35722 10996 ft 289 kts 103°
2026-05-05 03:56 37.73401 -122.33272 10985 ft 290 kts 103°
2026-05-05 03:56 37.72883 -122.30824 10999 ft 291 kts 103°
2026-05-05 03:56 37.72360 -122.28353 10998 ft 292 kts 103°
2026-05-05 03:56 37.71835 -122.25880 10996 ft 292 kts 103°
2026-05-05 03:57 37.71312 -122.23414 10998 ft 291 kts 103°
2026-05-05 03:57 37.70790 -122.20941 11000 ft 291 kts 103°
2026-05-05 03:57 37.70254 -122.18472 10999 ft 292 kts 107°
2026-05-05 03:57 37.69183 -122.16309 10872 ft 294 kts 135°
2026-05-05 03:58 37.67585 -122.14741 10478 ft 290 kts 142°
2026-05-05 03:58 37.65953 -122.13295 9979 ft 290 kts 143°
2026-05-05 03:58 37.64305 -122.11836 9415 ft 289 kts 143°
2026-05-05 03:58 37.62646 -122.10362 8868 ft 287 kts 143°
2026-05-05 03:59 37.61033 -122.08904 8335 ft 285 kts 143°
2026-05-05 03:59 37.59466 -122.07460 7878 ft 280 kts 143°
2026-05-05 03:59 37.57967 -122.05924 7427 ft 276 kts 132°
2026-05-05 03:59 37.56976 -122.03849 6996 ft 271 kts 114°
2026-05-05 04:00 37.56269 -122.01714 6610 ft 265 kts 114°
2026-05-05 04:00 37.55204 -121.99846 6145 ft 259 kts 146°
2026-05-05 04:00 37.53588 -121.99124 5718 ft 250 kts 181°
2026-05-05 04:00 37.52000 -121.99745 5380 ft 239 kts 217°
2026-05-05 04:01 37.51074 -122.01438 5005 ft 234 kts 253°
2026-05-05 04:01 37.50833 -122.03438 4676 ft 228 kts 263°
2026-05-05 04:01 37.50688 -122.05392 4376 ft 220 kts 263°
2026-05-05 04:01 37.50575 -122.07291 4136 ft 217 kts 270°
2026-05-05 04:02 37.50787 -122.09164 3921 ft 217 kts 283°
2026-05-05 04:02 37.51249 -122.10971 3702 ft 216 kts 290°
2026-05-05 04:02 37.51825 -122.12687 3484 ft 215 kts 293°
2026-05-05 04:02 37.52465 -122.14393 3274 ft 211 kts 295°
2026-05-05 04:03 37.53113 -122.16020 3087 ft 209 kts 296°
2026-05-05 04:03 37.53767 -122.17606 3009 ft 197 kts 297°
2026-05-05 04:03 37.54377 -122.19073 2923 ft 183 kts 297°
2026-05-05 04:03 37.54959 -122.20469 2704 ft 178 kts 296°
2026-05-05 04:04 37.55535 -122.21840 2488 ft 176 kts 297°
2026-05-05 04:04 37.56102 -122.23191 2262 ft 172 kts 297°
2026-05-05 04:04 37.56624 -122.24437 2097 ft 148 kts 296°
2026-05-05 04:04 37.57091 -122.25549 1882 ft 142 kts 297°
2026-05-05 04:05 37.57554 -122.26653 1687 ft 142 kts 297°
2026-05-05 04:05 37.58017 -122.27755 1485 ft 143 kts 296°
2026-05-05 04:05 37.58483 -122.28866 1299 ft 143 kts 296°
2026-05-05 04:05 37.58948 -122.29975 1091 ft 143 kts 297°
2026-05-05 04:06 37.59421 -122.31090 865 ft 144 kts 297°
2026-05-05 04:06 37.59883 -122.32204 646 ft 145 kts 297°
2026-05-05 04:06 37.60352 -122.33311 415 ft 142 kts 297°
2026-05-05 04:06 37.60799 -122.34394 235 ft 136 kts 298°
2026-05-05 04:07 37.61238 -122.35450 101 ft 134 kts 299°
2026-05-05 04:07 37.61651 -122.36423 24 ft 102 kts 297°
2026-05-05 04:07 37.61881 -122.36970 26 ft 57 kts 298°
2026-05-05 04:07 37.62056 -122.37391 24 ft 52 kts 298°
2026-05-05 04:08 37.62209 -122.37771 26 ft 42 kts 289°
2026-05-05 04:08 37.62228 -122.38056 24 ft 24 kts 268°
2026-05-05 04:08 37.62226 -122.38112 26 ft 0 kts 269°
2026-05-05 04:08 37.62225 -122.38134 24 ft 6 kts 264°
2026-05-05 04:09 37.62168 -122.38205 28 ft 18 kts 213°
2026-05-05 04:09 37.62115 -122.38244 26 ft 18 kts 209°